Location: Gleizolles
(44.4833°N, 6.7667°E)
Time: 11:11:58
(UTC+00:00)

Tiros 1 - Pass Details

Date: 29 June 2024
Orbit: 624 x 656 km, 48.4° (Epoch: 20 July)

Event Time Altitude Azimuth Distance (km) Brightness Sun altitude
Rises 01:28:12 0° 291° (WNW) 2,907 10.4 -17.7°
Reaches altitude 10° 01:30:31 10° 292° (WNW) 2,001 9.6 -17.5°
Maximum altitude 01:35:08 78° 19° (NNE) 646 7.2 -17.1°
Drops below altitude 10° 01:39:46 10° 107° (ESE) 2,012 9.8 -16.7°
Sets 01:42:06 0° 109° (ESE) 2,924 10.7 -16.5°
